FW8953 Weather Reports


time (UTC)temp
F
wind
direction
speed
knots
gust
knots
rain 1hr
in
rain 24hr
in
rain mn
in
humidity
%
barometer
mb
20260906231037 98 120 4.3 11.3 0.00 0.00 0.00 44 1010.9
20260906230538 98 126 3.5 11.3 0.00 0.00 0.00 44 1010.9
20260906230106 98 147 4.3 8.7 0.00 0.00 0.00 44 1010.9
20260906225539 98 146 3.5 11.3 0.00 0.00 0.00 44 1010.9
20260906225039 98 83 6.1 11.3 0.00 0.00 0.00 44 1010.8
20260906224605 98 178 3.5 7.0 0.00 0.00 0.00 45 1011.0
20260906224039 98 188 3.5 9.6 0.00 0.00 0.00 45 1010.9
20260906223538 98 171 3.5 13.0 0.00 0.00 0.00 44 1010.9
20260906223057 98 155 7.0 13.0 0.00 0.00 0.00 44 1010.9
20260906222537 98 163 4.3 7.8 0.00 0.00 0.00 45 1011.0
20260906222038 98 0 1.7 11.3 0.00 0.00 0.00 45 1011.0
20260906221557 98 139 2.6 11.3 0.00 0.00 0.00 45 1011.0
20260906221038 98 151 7.8 17.4 0.00 0.00 0.00 45 1011.0
20260906220538 97 135 3.5 17.4 0.00 0.00 0.00 47 1010.9
20260906220100 97 194 4.3 9.6 0.00 0.00 0.00 48 1010.9
20260906215538 97 174 3.5 7.8 0.00 0.00 0.00 49 1011.0
20260906215038 97 191 5.2 10.4 0.00 0.00 0.00 47 1011.0
20260906214607 98 175 4.3 13.9 0.00 0.00 0.00 45 1011.0
20260906214038 98 147 5.2 13.9 0.00 0.00 0.00 46 1011.1
20260906213538 97 143 2.6 8.7 0.00 0.00 0.00 46 1011.1
20260906213058 97 146 5.2 8.7 0.00 0.00 0.00 50 1011.3
20260906212540 98 187 3.5 7.8 0.00 0.00 0.00 46 1011.3
20260906212039 98 321 2.6 7.8 0.00 0.00 0.00 45 1011.4
20260906211601 98 123 3.5 8.7 0.00 0.00 0.00 46 1011.5
20260906211038 98 101 2.6 8.7 0.00 0.00 0.00 46 1011.6
20260906210538 98 86 2.6 8.7 0.00 0.00 0.00 47 1011.7
20260906210107 98 116 3.5 8.7 0.00 0.00 0.00 46 1011.8
20260906205538 98 118 2.6 8.7 0.00 0.00 0.00 46 1011.9
20260906205038 98 129 3.5 8.7 0.00 0.00 0.00 47 1012.0
20260906204606 97 177 0.9 10.4 0.00 0.00 0.00 48 1012.0
20260906204037 97 82 7.0 10.4 0.00 0.00 0.00 47 1012.1
20260906203541 97 151 4.3 9.6 0.00 0.00 0.00 49 1012.2
20260906203057 97 148 3.5 10.4 0.00 0.00 0.00 48 1012.2
20260906202537 97 90 2.6 10.4 0.00 0.00 0.00 48 1012.2
20260906202038 97 133 5.2 13.0 0.00 0.00 0.00 49 1012.2
20260906201606 97 190 5.2 13.0 0.00 0.00 0.00 51 1012.3
20260906201036 97 127 5.2 10.4 0.00 0.00 0.00 50 1012.4
20260906200538 97 130 2.6 10.4 0.00 0.00 0.00 49 1012.5
20260906200103 97 136 7.8 10.4 0.00 0.00 0.00 48 1012.5
20260906195538 97 123 5.2 11.3 0.00 0.00 0.00 49 1012.6
20260906195039 96 197 4.3 12.2 0.00 0.00 0.00 50 1012.5
20260906194558 97 160 5.2 12.2 0.00 0.00 0.00 48 1012.7
20260906194038 97 117 4.3 11.3 0.00 0.00 0.00 49 1012.7
20260906193537 97 107 5.2 11.3 0.00 0.00 0.00 48 1012.8
20260906193057 96 128 4.3 10.4 0.00 0.00 0.00 48 1012.8
20260906192538 96 124 3.5 13.9 0.00 0.00 0.00 49 1012.8
20260906192037 96 159 5.2 13.9 0.00 0.00 0.00 49 1012.9
20260906191602 96 137 3.5 12.2 0.00 0.00 0.00 50 1013.0
20260906191039 96 140 6.1 13.0 0.00 0.00 0.00 49 1013.0
20260906190538 96 107 6.1 13.0 0.00 0.00 0.00 49 1013.0
20260906190112 96 190 7.8 13.0 0.00 0.00 0.00 48 1013.1
20260906185538 96 184 5.2 13.0 0.00 0.00 0.00 48 1013.1
20260906185037 96 143 7.0 14.8 0.00 0.00 0.00 49 1013.1
20260906184603 95 126 7.0 14.8 0.00 0.00 0.00 48 1013.2
20260906184038 95 145 5.2 12.2 0.00 0.00 0.00 50 1013.3
20260906183537 95 123 6.1 13.9 0.00 0.00 0.00 49 1013.3
20260906183105 95 146 7.0 13.9 0.00 0.00 0.00 51 1013.4
20260906182539 95 128 5.2 13.0 0.00 0.00 0.00 52 1013.5
20260906182044 95 159 5.2 13.9 0.00 0.00 0.00 49 1013.5
20260906181559 95 134 6.1 13.9 0.00 0.00 0.00 49 1013.6
20260906181038 94 137 5.2 11.3 0.00 0.00 0.00 53 1013.7
20260906180539 94 130 6.1 10.4 0.00 0.00 0.00 51 1013.7
20260906180108 94 163 3.5 10.4 0.00 0.00 0.00 54 1013.8
20260906175538 94 133 5.2 10.4 0.00 0.00 0.00 53 1013.9
20260906175038 94 108 5.2 8.7 0.00 0.00 0.00 53 1013.9
20260906174552 94 164 4.3 8.7 0.00 0.00 0.00 56 1014.1
20260906174037 93 126 4.3 8.7 0.00 0.00 0.00 54 1014.2
20260906173539 93 144 4.3 9.6 0.00 0.00 0.00 56 1014.3
20260906173101 93 128 5.2 13.0 0.00 0.00 0.00 54 1014.4
20260906172540 93 119 7.0 13.0 0.00 0.00 0.00 54 1014.4
20260906172038 93 155 3.5 10.4 0.00 0.00 0.00 55 1014.4
20260906171559 93 142 5.2 8.7 0.00 0.00 0.00 56 1014.5
20260906171037 93 197 3.5 11.3 0.00 0.00 0.00 56 1014.6
20260906170538 92 156 3.5 11.3 0.00 0.00 0.00 56 1014.7
20260906170106 92 196 4.3 7.8 0.00 0.00 0.00 59 1014.7
20260906165540 92 188 1.7 6.1 0.00 0.00 0.00 58 1014.7
20260906165041 91 128 2.6 7.0 0.00 0.00 0.00 58 1014.8
20260906164554 91 186 3.5 11.3 0.00 0.00 0.00 60 1014.8
20260906164038 92 198 5.2 11.3 0.00 0.00 0.00 60 1014.9
20260906163540 92 215 5.2 8.7 0.00 0.00 0.00 59 1014.9
20260906163102 92 142 5.2 8.7 0.00 0.00 0.00 57 1014.9
20260906162539 91 157 4.3 8.7 0.00 0.00 0.00 60 1014.8
20260906162039 91 123 4.3 8.7 0.00 0.00 0.00 60 1014.8
20260906161605 91 198 2.6 7.8 0.00 0.00 0.00 59 1014.7
20260906161038 91 150 3.5 7.8 0.00 0.00 0.00 60 1014.7
20260906160537 91 113 4.3 7.8 0.00 0.00 0.00 60 1014.8
20260906160113 91 135 1.7 7.8 0.00 0.00 0.00 61 1014.7
20260906155537 90 264 2.6 7.8 0.00 0.00 0.00 63 1014.7
20260906155038 90 113 2.6 7.8 0.00 0.00 0.00 63 1014.6
20260906154603 89 153 2.6 7.0 0.00 0.00 0.00 65 1014.6
20260906154037 88 259 0.9 3.5 0.00 0.00 0.00 71 1014.7
20260906153537 88 246 1.7 3.5 0.00 0.00 0.00 71 1014.6
20260906153100 88 293 0.9 3.5 0.00 0.00 0.00 71 1014.6
20260906152541 88 279 1.7 3.5 0.00 0.00 0.00 71 1014.6
20260906152037 89 281 0.9 2.6 0.00 0.00 0.00 70 1014.5
20260906151609 89 227 0.9 3.5 0.00 0.00 0.00 69 1014.4
20260906151038 90 157 0.9 3.5 0.00 0.00 0.00 67 1014.4
20260906150538 89 44 0.0 3.5 0.00 0.00 0.00 68 1014.3
20260906150105 88 92 0.9 3.5 0.00 0.00 0.00 68 1014.4
20260906145539 88 26 0.0 3.5 0.00 0.00 0.00 70 1014.3
20260906145039 87 0 0.0 3.5 0.00 0.00 0.00 72 1014.3
20260906144608 86 0 0.0 2.6 0.00 0.00 0.00 73 1014.3
20260906144038 86 245 0.0 0.9 0.00 0.00 0.00 74 1014.4
20260906143538 85 0 0.0 1.7 0.00 0.00 0.00 73 1014.4
20260906143056 85 0 0.0 1.7 0.00 0.00 0.00 73 1014.4
20260906142538 85 0 0.9 1.7 0.00 0.00 0.00 74 1014.5
20260906142040 85 223 0.0 1.7 0.00 0.00 0.00 74 1014.5
20260906141555 85 0 0.0 1.7 0.00 0.00 0.00 75 1014.5
20260906141040 85 249 0.0 1.7 0.00 0.00 0.00 74 1014.5
20260906140543 85 249 0.9 1.7 0.00 0.00 0.00 73 1014.5
20260906140059 86 156 0.0 1.7 0.00 0.00 0.00 73 1014.6
20260906135538 86 156 0.0 1.7 0.00 0.00 0.00 73 1014.6
20260906135042 85 0 0.0 1.7 0.00 0.00 0.00 74 1014.5
20260906134600 85 0 0.0 1.7 0.00 0.00 0.00 77 1014.4
20260906134040 84 0 0.0 1.7 0.00 0.00 0.00 78 1014.4
20260906133538 83 0 0.0 2.6 0.00 0.00 0.00 79 1014.4
20260906133115 83 155 0.9 2.6 0.00 0.00 0.00 79 1014.4
20260906132539 82 130 0.0 2.6 0.00 0.00 0.00 81 1014.4
20260906132039 82 99 0.0 2.6 0.00 0.00 0.00 82 1014.4
20260906131554 81 114 0.0 2.6 0.00 0.00 0.00 82 1014.4
20260906131037 81 119 0.0 2.6 0.00 0.00 0.00 83 1014.4
20260906130540 80 116 0.9 2.6 0.00 0.00 0.00 83 1014.4
20260906130058 80 0 0.0 2.6 0.00 0.00 0.00 83 1014.3
20260906125539 80 0 0.0 2.6 0.00 0.00 0.00 84 1014.2
20260906125039 80 0 0.0 2.6 0.00 0.00 0.00 84 1014.3
20260906124557 80 0 0.0 1.7 0.00 0.00 0.00 83 1014.2
20260906124041 80 0 0.0 2.6 0.00 0.00 0.00 83 1014.2
20260906123607 80 0 0.0 2.6 0.00 0.00 0.00 83 1014.1
20260906123053 80 88 0.9 2.6 0.00 0.00 0.00 83 1014.0
20260906122537 80 0 0.9 2.6 0.00 0.00 0.00 83 1014.0
20260906122039 80 94 0.9 2.6 0.00 0.00 0.00 83 1013.9
20260906121552 80 101 0.9 2.6 0.00 0.00 0.00 83 1013.9
20260906121037 80 113 0.9 2.6 0.00 0.00 0.00 83 1013.8
20260906120537 80 117 0.9 1.7 0.00 0.00 0.00 83 1013.7
20260906120100 80 117 0.9 1.7 0.00 0.00 0.00 82 1013.7
20260906115535 80 0 0.0 1.7 0.00 0.00 0.00 82 1013.7
20260906115038 80 0 0.0 1.7 0.00 0.00 0.00 82 1013.7
20260906114610 80 0 0.9 2.6 0.00 0.00 0.00 82 1013.7
20260906114038 80 115 0.9 2.6 0.00 0.00 0.00 82 1013.7
20260906113537 80 123 0.0 2.6 0.00 0.00 0.00 81 1013.7
20260906113057 80 0 0.9 2.6 0.00 0.00 0.00 81 1013.6
20260906112538 81 134 0.0 2.6 0.00 0.00 0.00 81 1013.6
20260906112038 81 105 0.0 2.6 0.00 0.00 0.00 81 1013.4
20260906111603 81 107 0.9 2.6 0.00 0.00 0.00 81 1013.4
20260906111039 81 133 0.9 3.5 0.00 0.00 0.00 81 1013.4
20260906110541 81 144 1.7 3.5 0.00 0.00 0.00 81 1013.4
20260906110100 81 135 1.7 4.3 0.00 0.00 0.00 81 1013.4
20260906105538 81 115 1.7 4.3 0.00 0.00 0.00 81 1013.3
20260906105039 81 141 1.7 4.3 0.00 0.00 0.00 81 1013.2
20260906104618 81 132 0.0 2.6 0.00 0.00 0.00 80 1013.2
20260906104037 81 0 0.0 0.0 0.00 0.00 0.00 80 1013.1
20260906103536 81 0 0.0 0.0 0.00 0.00 0.00 80 1013.1
20260906103057 81 0 0.0 0.0 0.00 0.00 0.00 80 1013.1
20260906102538 81 0 0.0 0.0 0.00 0.00 0.00 80 1013.1
20260906102036 81 0 0.0 0.0 0.00 0.00 0.00 80 1013.1
20260906101556 81 0 0.0 0.9 0.00 0.00 0.00 79 1013.1
20260906101037 81 0 0.0 1.7 0.00 0.00 0.00 79 1013.1
20260906100539 81 0 0.0 1.7 0.00 0.00 0.00 79 1013.0
20260906100055 82 0 0.0 1.7 0.00 0.00 0.00 79 1013.0
20260906095538 82 130 0.0 3.5 0.00 0.00 0.00 79 1013.0
20260906095040 82 129 0.9 3.5 0.00 0.00 0.00 78 1012.9
20260906094554 82 153 0.9 4.3 0.00 0.00 0.00 79 1012.9
20260906094038 82 176 0.9 6.1 0.00 0.00 0.00 79 1012.9
20260906093538 82 166 1.7 6.1 0.00 0.00 0.00 79 1012.8
20260906093129 82 191 1.7 7.0 0.00 0.00 0.00 78 1012.7
20260906092539 82 186 2.6 7.0 0.00 0.00 0.00 78 1012.7
20260906092042 83 179 2.6 7.0 0.00 0.00 0.00 78 1012.6
20260906091556 83 173 3.5 7.8 0.00 0.00 0.00 79 1012.7
20260906091039 83 192 3.5 7.8 0.00 0.00 0.00 79 1012.6
20260906090541 83 200 4.3 7.8 0.00 0.00 0.00 79 1012.7
20260906090054 83 191 4.3 9.6 0.00 0.00 0.00 79 1012.5
20260906085541 83 194 5.2 9.6 0.00 0.00 0.00 79 1012.5
20260906085043 83 142 4.3 8.7 0.00 0.00 0.00 78 1012.5
20260906084601 83 176 4.3 8.7 0.00 0.00 0.00 79 1012.5
20260906084039 83 180 4.3 8.7 0.00 0.00 0.00 78 1012.5
20260906083540 83 172 3.5 7.0 0.00 0.00 0.00 79 1012.4
20260906083056 83 153 2.6 7.0 0.00 0.00 0.00 78 1012.4
20260906082539 83 189 2.6 6.1 0.00 0.00 0.00 79 1012.4
20260906082041 83 150 1.7 4.3 0.00 0.00 0.00 78 1012.4
20260906081557 83 155 1.7 4.3 0.00 0.00 0.00 78 1012.3
20260906081039 83 134 1.7 5.2 0.00 0.00 0.00 78 1012.3
20260906080542 83 126 2.6 5.2 0.00 0.00 0.00 77 1012.4
20260906080057 83 143 2.6 5.2 0.00 0.00 0.00 77 1012.5
20260906075540 83 145 2.6 5.2 0.00 0.00 0.00 77 1012.5
20260906075039 83 163 2.6 4.3 0.00 0.00 0.00 77 1012.5
20260906074604 83 166 1.7 4.3 0.00 0.00 0.00 77 1012.5
20260906074039 83 169 0.9 4.3 0.00 0.00 0.00 76 1012.4
20260906073540 84 190 1.7 4.3 0.00 0.00 0.00 76 1012.5
20260906073101 84 162 2.6 5.2 0.00 0.00 0.00 75 1012.5
20260906072540 84 152 1.7 5.2 0.00 0.00 0.00 75 1012.6
20260906072040 84 174 2.6 5.2 0.00 0.00 0.00 75 1012.7
20260906071559 84 138 1.7 4.3 0.00 0.00 0.00 74 1012.9
20260906071040 84 148 1.7 4.3 0.00 0.00 0.00 74 1012.8
20260906070540 84 156 1.7 3.5 0.00 0.00 0.00 74 1012.8
20260906070112 84 148 1.7 3.5 0.00 0.00 0.00 74 1012.9
20260906065543 84 143 1.7 6.1 0.00 0.00 0.00 73 1012.8
20260906065040 84 148 1.7 6.1 0.00 0.00 0.00 73 1012.8
20260906064603 84 126 0.9 4.3 0.00 0.00 0.00 73 1012.9
20260906064039 84 134 1.7 4.3 0.00 0.00 0.00 72 1012.9
20260906063538 84 176 0.9 4.3 0.00 0.00 0.00 72 1012.9
20260906063058 84 122 1.7 5.2 0.00 0.00 0.00 73 1012.8
20260906062538 84 130 2.6 5.2 0.00 0.00 0.00 73 1012.8
20260906062036 84 178 2.6 5.2 0.00 0.00 0.00 73 1012.7
20260906061600 85 125 1.7 5.2 0.00 0.00 0.00 73 1012.7
20260906061039 85 139 1.7 5.2 0.00 0.00 0.00 73 1012.8
20260906060538 85 156 1.7 4.3 0.00 0.00 0.00 72 1012.8
20260906060055 85 128 1.7 4.3 0.00 0.00 0.00 72 1012.8
20260906055540 85 137 0.9 4.3 0.00 0.00 0.00 73 1012.8
20260906055036 85 155 1.7 4.3 0.00 0.00 0.00 72 1012.8
20260906054607 85 178 2.6 4.3 0.00 0.00 0.00 72 1012.7
20260906054040 85 198 1.7 3.5 0.00 0.00 0.00 72 1012.8
20260906053539 86 0 1.7 3.5 0.00 0.00 0.00 71 1012.9
20260906053056 86 175 0.9 6.1 0.00 0.00 0.00 70 1012.9
20260906052538 86 146 0.9 6.1 0.00 0.00 0.00 70 1012.9
20260906052037 86 176 2.6 6.1 0.00 0.00 0.00 70 1012.8
20260906051558 86 140 2.6 6.1 0.00 0.00 0.00 70 1012.9
20260906051039 86 165 2.6 5.2 0.00 0.00 0.00 69 1012.9
20260906050541 86 134 2.6 5.2 0.00 0.00 0.00 69 1012.9
20260906050121 86 155 1.7 5.2 0.00 0.00 0.00 69 1012.9
20260906045539 86 155 1.7 5.2 0.00 0.00 0.00 69 1013.0
20260906045039 86 148 2.6 5.2 0.00 0.00 0.00 69 1012.9
20260906044553 86 153 2.6 7.0 0.00 0.00 0.00 69 1012.8
20260906044037 86 140 2.6 7.0 0.00 0.00 0.00 69 1012.9
20260906043539 86 132 3.5 7.0 0.00 0.00 0.00 68 1012.8
20260906043100 86 145 2.6 7.8 0.00 0.00 0.00 68 1012.8
20260906042535 86 162 3.5 7.8 0.00 0.00 0.00 68 1012.7
20260906042039 87 121 3.5 7.8 0.00 0.00 0.00 68 1012.7
20260906041555 87 161 2.6 7.0 0.00 0.00 0.00 68 1012.7
20260906041039 87 138 3.5 7.8 0.00 0.00 0.00 67 1012.7
20260906040535 87 170 3.5 7.8 0.00 0.00 0.00 67 1012.7
20260906040113 87 156 2.6 7.0 0.00 0.00 0.00 67 1012.8
20260906035536 87 144 2.6 7.0 0.00 0.00 0.00 66 1012.7
20260906035038 87 145 3.5 8.7 0.00 0.00 0.00 66 1012.8
20260906034554 87 146 3.5 8.7 0.00 0.00 0.00 65 1012.8
20260906034036 87 155 2.6 7.8 0.00 0.00 0.00 66 1012.8
20260906033536 88 115 4.3 8.7 0.00 0.00 0.00 65 1012.7
20260906033111 88 134 3.5 9.6 0.00 0.00 0.00 65 1012.7
20260906032544 88 136 5.2 9.6 0.00 0.00 0.00 64 1012.6
20260906032036 88 137 4.3 8.7 0.00 0.00 0.00 65 1012.8
20260906031605 88 163 4.3 10.4 0.00 0.00 0.00 64 1012.8
20260906031037 88 205 5.2 11.3 0.00 0.00 0.00 63 1012.9
20260906030536 88 215 6.1 11.3 0.00 0.00 0.00 64 1012.8
20260906030058 88 167 4.3 8.7 0.00 0.00 0.00 64 1012.9
20260906025535 88 160 2.6 6.1 0.00 0.00 0.00 64 1012.8
20260906025040 88 120 2.6 7.0 0.00 0.00 0.00 63 1012.8
20260906024617 89 128 3.5 7.0 0.00 0.00 0.00 62 1012.7
20260906024037 89 123 3.5 7.8 0.00 0.00 0.00 63 1012.7
20260906023536 89 128 2.6 9.6 0.00 0.00 0.00 62 1012.4
20260906023057 89 150 4.3 10.4 0.00 0.00 0.00 61 1012.3
20260906022541 89 138 6.1 10.4 0.00 0.00 0.00 61 1012.2
20260906022039 89 150 6.1 10.4 0.00 0.00 0.00 60 1012.1
20260906021605 90 144 5.2 13.9 0.00 0.00 0.00 60 1012.1
20260906021039 90 140 6.1 13.9 0.00 0.00 0.00 59 1012.0
20260906020539 90 140 7.8 12.2 0.00 0.00 0.00 58 1012.0
20260906020108 91 150 7.8 12.2 0.00 0.00 0.00 57 1012.0
20260906015538 91 132 7.0 14.8 0.00 0.00 0.00 56 1012.0
20260906015039 92 120 7.8 14.8 0.00 0.00 0.00 55 1011.8
20260906014607 92 197 7.8 14.8 0.00 0.00 0.00 55 1011.7
20260906014039 93 144 7.0 13.9 0.00 0.00 0.00 54 1011.6
20260906013539 93 156 7.0 13.0 0.00 0.00 0.00 55 1011.3
20260906013056 94 145 5.2 9.6 0.00 0.00 0.00 54 1011.3
20260906012539 94 144 5.2 9.6 0.00 0.00 0.00 52 1011.3
20260906012039 94 150 2.6 7.0 0.00 0.00 0.00 51 1011.2
20260906011558 95 138 1.7 6.1 0.00 0.00 0.00 49 1011.1
20260906011040 95 128 2.6 7.8 0.00 0.00 0.00 49 1011.0
20260906010539 95 131 3.5 7.8 0.00 0.00 0.00 48 1011.1
20260906010108 95 134 3.5 7.8 0.00 0.00 0.00 48 1011.0
20260906005539 95 142 4.3 7.8 0.00 0.00 0.00 47 1011.0
20260906005041 95 140 3.5 7.8 0.00 0.00 0.00 47 1011.0
20260906004600 96 92 2.6 9.6 0.00 0.00 0.00 47 1011.0
20260906004039 96 152 5.2 9.6 0.00 0.00 0.00 46 1011.1
20260906003540 96 153 3.5 7.8 0.00 0.00 0.00 47 1011.0
20260906003100 96 155 4.3 10.4 0.00 0.00 0.00 46 1011.0
20260906002539 96 154 5.2 10.4 0.00 0.00 0.00 46 1011.0
20260906002040 96 134 4.3 7.8 0.00 0.00 0.00 47 1010.9
20260906001558 97 145 3.5 7.0 0.00 0.00 0.00 46 1011.0
20260906001038 97 142 2.6 7.8 0.00 0.00 0.00 47 1011.0
20260906000538 97 138 2.6 8.7 0.00 0.00 0.00 46 1011.0
20260906000107 97 186 5.2 8.7 0.00 0.00 0.00 45 1010.9
20260905235539 97 138 3.5 8.7 0.00 0.00 0.00 46 1010.8
20260905235039 96 148 3.5 6.1 0.00 0.00 0.00 47 1010.8
20260905234613 96 101 0.9 4.3 0.00 0.00 0.00 53 1010.7
20260905234038 96 229 0.9 2.6 0.00 0.00 0.00 49 1010.7
20260905233536 96 238 1.7 2.6 0.00 0.00 0.00 55 1010.8
20260905233058 95 0 0.0 3.5 0.00 0.00 0.00 54 1010.7
20260905232539 95 267 0.0 7.0 0.00 0.00 0.00 56 1010.7
20260905232036 95 227 2.6 7.0 0.00 0.00 0.00 61 1010.7
20260905231556 96 202 3.5 5.2 0.00 0.00 0.00 50 1010.7